Home   Weather   Shantou   Past weeks

Flag for China Past Weather in Shantou, Guangdong, China — Yesterday and Last 2 Weeks

Now
79 °F

Sprinkles. Fog.


Feels Like: 83 °F
Forecast: 76 / 86 °F
Wind: 6 mph from Southeast

Location: Shantou Airport

Current Time: Sep 30, 2016 at 11:27:57 AM

Latest Report: Sep 30, 2016 at 11:00 AM


Visibility: 3 mi

Pressure: 29.80 "Hg

Humidity: 100%

Dew Point: 79 °F

Location of ShantouLocation

Past Weather in Shantou — Graph

°F

Shantou Temperature Yesterday

Maximum temperature yesterday: 84 °F (at 4:00 PM)
Minimum temperature yesterday: 75 °F (at 6:00 AM)
Average temperature yesterday: 80 °F

High & Low Weather Summary for the Past Weeks

 TemperatureHumidityPressure
High99 °F (Sep 27, 3:00 PM)100% (Sep 19, 7:00 PM)30.01 "Hg (Sep 19, 7:00 PM)
Low72 °F (Sep 21, 6:00 AM)39% (Sep 27, 3:00 PM)29.30 "Hg (Sep 28, 4:00 AM)
Average83 °F76%29.75 "Hg
* Reported Sep 15 10:00 AM — Sep 30 10:00 AM, Shantou, Weather by CustomWeather, © 2016

Note: Actual official high and low records may vary slightly from our data, if they occured in-between our weather recording intervals... More about our weather records

Advertising

Shantou Weather History for the Previous 24 Hours

Scroll right to see more
 ConditionsComfort  
Time TempWeatherWind HumidityBarometerVisibility
10:00 AM
Fri, Sep 30
79 °FSprinkles. Fog.3 mph100%29.80 "Hg3 mi
9:00 AM79 °FSprinkles. Fog.3 mph100%29.77 "Hg1 mi
8:00 AM79 °FSprinkles. Fog.1 mph94%29.77 "Hg2 mi
7:00 AM77 °FSprinkles. Fog.No wind100%29.74 "Hg1 mi
6:00 AM77 °FThunderstorms. Fog.3 mph100%29.74 "Hg2 mi
5:00 AM77 °FFog.1 mph100%29.71 "Hg2 mi
4:00 AM79 °FFog.1 mph94%29.71 "Hg2 mi
3:00 AM79 °FFog.1 mph94%29.71 "Hg2 mi
2:00 AM79 °FLight rain. Fog.No wind94%29.71 "Hg3 mi
1:00 AM79 °FLight rain. Partly cloudy.3 mph94%29.71 "Hg4 mi
12:00 AM81 °FPartly cloudy.6 mph94%29.74 "Hg4 mi
11:00 PM
Thu, Sep 29
81 °FFog.6 mph94%29.74 "Hg3 mi
10:00 PM81 °FFog.3 mph94%29.74 "Hg3 mi
9:00 PM81 °FFog.3 mph94%29.74 "Hg3 mi
8:00 PM82 °FPassing clouds.6 mph79%29.71 "HgN/A
7:00 PM82 °FPartly cloudy.3 mph79%29.68 "HgN/A
6:00 PM82 °FPartly sunny.3 mph79%29.65 "HgN/A
5:00 PM82 °FPartly sunny.No wind84%29.65 "HgN/A
4:00 PM84 °FPartly sunny.1 mph74%29.65 "HgN/A
3:00 PM82 °FPartly sunny.3 mph74%29.65 "HgN/A
2:00 PM82 °FPartly sunny.3 mph74%29.65 "HgN/A
1:00 PM82 °FBroken clouds.3 mph74%29.65 "HgN/A
12:00 PM81 °FBroken clouds.1 mph84%29.68 "Hg5 mi
11:00 AM81 °FScattered clouds.1 mph84%29.68 "Hg5 mi
Weather by CustomWeather, © 2016

See weather overviewHow to use our weather pages